Weather History for KBKW - January, 2012

Change the Weather History Date:

Sunday, January 22, 2012

  Actual Average Record
Temperature  
Mean Temperature 38 °F 31 °F  
Max Temperature 44 °F 39 °F 70 °F (1909)
Min Temperature 31 °F 23 °F -8 °F (1970)
Degree Days  
Heating Degree Days 27 34  
Month to date heating degree days 677 748  
Since 1 July heating degree days 2423 2841  
Cooling Degree Days 0 0  
Month to date cooling degree days 0 0  
Year to date cooling degree days 0 0  
Moisture  
Dew Point 33 °F    
Average Humidity 85    
Maximum Humidity 100    
Minimum Humidity 70    
Precipitation  
Precipitation 0.00 in 0.09 in 2.82 in (2014)
Month to date precipitation 2.65 2.01  
Year to date precipitation 2.65 2.01  
Snow  
Snow 0.00 in - - ()
Month to date snowfall 11.0  
Since 1 September snowfall 18.8  
Snow Depth 0.00 in    
Sea Level Pressure  
Sea Level Pressure 30.17 in    
Wind  
Wind Speed 12 mph (SE)    
Max Wind Speed 20 mph    
Max Gust Speed 28 mph    
Visibility 8 miles    
Events      
T = Trace of Precipitation, MM = Missing Value Source: NWS Daily Summary

Daily Weather History Graph

Daily Weather History Graph

Search for Another Location

Airport or City:

Trip Planner

Search our weather history database for the weather conditions in past years. The results will help you decide how hot, cold, wet, or windy it might be!

Date:

Astronomy

Jan. 22, 2012 Rise Set
Actual Time 7:35 AM EST 5:36 PM EST
Civil Twilight 7:07 AM EST 6:04 PM EST
Nautical Twilight 6:35 AM EST 6:36 PM EST
Astronomical Twilight 6:04 AM EST 7:07 PM EST
Moon 6:51 AM EST (1/22) 5:16 PM EST (1/22)
Length of Visible Light 10h 57m
Length of Day
10h 00m
Waning Crescent, 0% of the Moon is Illuminated
Jan 22
Waning Crescent
Jan 23
New
Jan 30
First Quarter
Feb 7
Full
Feb 14
Last Quarter

Hourly Weather History & Observations

Time (EST) Temp. Windchill Dew Point Humidity Pressure Visibility Wind Dir Wind Speed Gust Speed Precip Events Conditions
12:15 AM 32.0 °F - 30.2 °F 93% 30.11 in 2.0 mi Calm Calm - N/A   Overcast
12:33 AM 32.0 °F - 30.2 °F 93% 30.12 in 1.5 mi Calm Calm - N/A   Overcast
12:48 AM 32.0 °F - 30.2 °F 93% 30.12 in 3.0 mi Calm Calm - N/A   Overcast
12:51 AM 32.0 °F - 30.9 °F 96% 30.20 in 4.0 mi Calm Calm - N/A   Overcast
1:51 AM 33.1 °F 30.0 °F 30.9 °F 92% 30.19 in 10.0 mi ESE 3.5 mph - N/A   Overcast
2:02 AM 33.8 °F - 30.2 °F 87% 30.12 in 10.0 mi Calm Calm - N/A   Overcast
2:24 AM 33.8 °F 30.8 °F 30.2 °F 87% 30.12 in 10.0 mi ESE 3.5 mph - N/A   Overcast
2:51 AM 33.1 °F 25.5 °F 30.9 °F 92% 30.17 in 10.0 mi SE 9.2 mph - N/A   Overcast
3:16 AM 33.8 °F 28.6 °F 32.0 °F 93% 30.11 in 10.0 mi SE 5.8 mph - N/A   Overcast
3:27 AM 33.8 °F 28.6 °F 32.0 °F 93% 30.12 in 10.0 mi ESE 5.8 mph - N/A   Overcast
3:51 AM 33.8 °F 28.6 °F 33.8 °F 100% 30.11 in 10.0 mi Variable 5.8 mph - N/A   Overcast
4:51 AM 35.1 °F 26.4 °F 33.1 °F 92% 30.18 in 10.0 mi SE 12.7 mph 18.4 mph N/A   Overcast
5:51 AM 36.0 °F 27.5 °F 33.1 °F 89% 30.20 in 10.0 mi SE 12.7 mph 19.6 mph N/A   Overcast
6:19 AM 35.6 °F 26.2 °F 33.8 °F 93% 30.12 in 5.0 mi SE 15.0 mph 25.3 mph N/A   Overcast
6:51 AM 35.1 °F 26.9 °F 33.1 °F 92% 30.20 in 5.0 mi SE 11.5 mph 20.7 mph N/A   Overcast
7:51 AM 34.0 °F 25.0 °F - N/A% 30.22 in 4.0 mi SE 12.7 mph 21.9 mph N/A   Haze
8:17 AM 33.8 °F 24.3 °F - N/A% 30.14 in 2.5 mi SE 13.8 mph 24.2 mph N/A   Overcast
8:38 AM 33.8 °F 23.5 °F - N/A% 30.15 in 1.8 mi SE 16.1 mph 26.5 mph N/A   Overcast
8:48 AM 33.8 °F 22.8 °F - N/A% 30.16 in 2.5 mi SE 18.4 mph 26.5 mph N/A   Overcast
8:51 AM 33.8 °F 23.2 °F - N/A% 30.16 in 2.5 mi SE 17.3 mph 26.5 mph N/A   Overcast
8:58 AM 35.6 °F 25.9 °F - N/A% 30.16 in 4.0 mi SE 16.1 mph 26.5 mph N/A   Haze
9:51 AM 35.1 °F 24.8 °F - N/A% 30.25 in 10.0 mi SE 17.3 mph 26.5 mph N/A   Overcast
10:51 AM 36.0 °F 27.1 °F 33.1 °F 89% 30.26 in 10.0 mi SE 13.8 mph 21.9 mph N/A   Overcast
11:04 AM 35.6 °F 26.2 °F 33.8 °F 93% 30.18 in 10.0 mi SE 15.0 mph 26.5 mph N/A   Overcast
11:51 AM 37.9 °F 30.5 °F 34.0 °F 86% 30.25 in 10.0 mi SSE 11.5 mph 21.9 mph N/A   Overcast
12:09 PM 39.2 °F 31.2 °F 33.8 °F 81% 30.17 in 10.0 mi SE 13.8 mph 21.9 mph N/A   Mostly Cloudy
12:20 PM 39.2 °F 31.6 °F 33.8 °F 81% 30.18 in 10.0 mi SSE 12.7 mph 20.7 mph N/A   Scattered Clouds
12:51 PM 42.1 °F 35.2 °F 35.1 °F 76% 30.22 in 10.0 mi SE 12.7 mph 24.2 mph N/A   Clear
1:51 PM 43.0 °F 36.0 °F 34.0 °F 71% 30.21 in 10.0 mi SSE 13.8 mph 23.0 mph N/A   Clear
2:51 PM 43.0 °F 36.4 °F 34.0 °F 71% 30.21 in 10.0 mi SSE 12.7 mph 23.0 mph N/A   Clear
3:51 PM 41.0 °F 33.5 °F 32.0 °F 70% 30.20 in 10.0 mi SSE 13.8 mph 26.5 mph N/A   Clear
4:51 PM 37.4 °F 28.9 °F 32.0 °F 81% 30.15 in 10.0 mi SE 13.8 mph 19.6 mph N/A   Partly Cloudy
5:51 PM 37.0 °F 28.9 °F 32.0 °F 82% 30.20 in 10.0 mi SE 12.7 mph 18.4 mph N/A   Clear
6:51 PM 37.0 °F 28.5 °F 33.1 °F 86% 30.22 in 10.0 mi SE 13.8 mph 23.0 mph N/A   Clear
7:08 PM 35.6 °F 27.5 °F 33.8 °F 93% 30.15 in 10.0 mi SE 11.5 mph 20.7 mph N/A   Partly Cloudy
7:51 PM 37.0 °F 27.0 °F 33.1 °F 86% 30.20 in 10.0 mi SE 18.4 mph 26.5 mph N/A   Partly Cloudy
8:25 PM 37.4 °F 28.5 °F 33.8 °F 87% 30.15 in 10.0 mi SE 15.0 mph 26.5 mph N/A   Mostly Cloudy
8:51 PM 37.0 °F 29.8 °F 34.0 °F 89% 30.21 in 10.0 mi SE 10.4 mph 24.2 mph N/A   Overcast
9:51 PM 37.4 °F 29.8 °F 33.8 °F 87% 30.14 in 10.0 mi SE 11.5 mph 19.6 mph N/A   Mostly Cloudy
10:01 PM 37.4 °F 30.3 °F 35.6 °F 93% 30.13 in 10.0 mi SE 10.4 mph - N/A   Mostly Cloudy
10:17 PM 37.4 °F 30.8 °F 35.6 °F 93% 30.13 in 10.0 mi SE 9.2 mph 24.2 mph N/A   Mostly Cloudy
10:51 PM 37.4 °F 31.4 °F 35.6 °F 93% 30.13 in 10.0 mi SE 8.1 mph 23.0 mph N/A   Overcast
11:51 PM 37.9 °F 30.5 °F 35.1 °F 89% 30.15 in 10.0 mi SE 11.5 mph 20.7 mph N/A   Mostly Cloudy